AO-07 1 7530U 74089B 25344.01356024 -.00000041 00000-0 33306-4 0 9997 2 7530 101.9966 350.2526 0012355 131.7584 251.4753 12.53694087336810 AO-27 1 22825U 93061C 25344.13162477 .00000211 00000-0 97449-4 0 9998 2 22825 98.7150 46.3927 0007402 298.4382 61.6054 14.30875228679960 FO-29 1 24278U 96046B 25344.11126513 .00000005 00000-0 42600-4 0 9997 2 24278 98.5465 213.5995 0349079 226.8077 130.3411 13.53262703447594 ISS 1 25544U 98067A 25343.89682520 .00014877 00000-0 27325-3 0 9996 2 25544 51.6313 156.5563 0003347 226.2924 133.7787 15.49459040542419 SO-50 1 27607U 02058C 25344.17443367 .00002968 00000-0 37162-3 0 9997 2 27607 64.5543 353.5274 0072117 297.0644 62.3115 14.82372175236436 AO-73 1 39444U 13066AE 25344.13005976 .00012265 00000-0 83254-3 0 9990 2 39444 97.8055 307.3762 0040282 124.4268 236.0776 15.05878954651174 IO-86 1 40931U 15052B 25151.18580175 .00001241 00000-0 78118-4 0 9996 2 40931 6.0006 24.0987 0012733 338.8432 21.1169 14.78805930523159 AO-91 1 43017U 17073E 25344.12461677 .00016469 00000-0 77879-3 0 9992 2 43017 97.4938 210.3805 0159853 259.5289 98.7894 15.08770386436842 PO-101 1 43678U 18084H 25344.18293846 .00003656 00000-0 30363-3 0 9996 2 43678 98.1023 167.5428 0007548 52.2645 307.9259 14.99411770387886 QO-100 1 43700U 18090A 25343.93030895 .00000147 00000-0 00000+0 0 9997 2 43700 0.0131 302.6820 0001285 333.8129 163.1778 1.00273346 25777 JO-97 1 43803U 18099AX 25344.12850649 .00023394 00000-0 89127-3 0 9999 2 43803 97.4416 41.9527 0005710 212.2591 147.8299 15.26703674384718 RS-44 1 44909U 19096E 25343.73045507 .00000045 00000-0 13974-3 0 9995 2 44909 82.5206 105.6080 0216933 227.1443 131.1257 12.79745955278111 CSS 1 48274U 21035A 25344.15240991 .00032718 00000-0 41039-3 0 9996 2 48274 41.4682 32.4132 0008862 9.3921 350.7081 15.59004040263626 HO-113 1 50466U 21131B 25344.22003429 .00000927 00000-0 30144-3 0 9992 2 50466 98.5055 72.6540 0003258 316.4883 43.6048 14.41106798207892 MO-122 1 60209U 24125G 25343.09929909 .00036419 00000-0 74576-3 0 9990 2 60209 97.2524 193.4693 0013842 191.9977 168.0945 15.45905039 80040 AO-123 1 61781U 24199AY 25344.19046475 .00015175 00000-0 49417-3 0 9999 2 61781 97.3249 209.6684 0012864 266.1386 93.8385 15.31860076104959 SO-124 1 62690U 25009CK 25343.49190491 .00186768 00000-0 24845-2 0 9994 2 62690 97.3878 65.9895 0001131 232.8353 127.2799 15.57531633 50271 TEVEL2-4 1 63213U 25052D 25344.16049641 .00024693 00000-0 93414-3 0 9996 2 63213 97.4100 236.0076 0005219 69.0643 291.1154 15.26928629 41195 TEVEL2-5 1 63214U 25052E 25343.51046157 .00025245 00000-0 95799-3 0 9996 2 63214 97.4098 235.3504 0005180 69.8390 290.3405 15.26820369 41095 TEVEL2-6 1 63215U 25052F 25343.64874704 .00026147 00000-0 99324-3 0 9998 2 63215 97.4101 235.4758 0005271 69.3623 290.8181 15.26779157 41115 TEVEL2-1 1 63217U 25052H 25344.14963703 .00023730 00000-0 91011-3 0 9994 2 63217 97.4071 235.7861 0005462 77.6439 282.5410 15.26480031 41180 TEVEL2-3 1 63218U 25052J 25344.14887589 .00024683 00000-0 94578-3 0 9991 2 63218 97.4075 235.7910 0005399 78.3635 281.8209 15.26503244 41185 TEVEL2-2 1 63219U 25052K 25344.15040855 .00024025 00000-0 92128-3 0 9999 2 63219 97.4070 235.7876 0005468 78.5136 281.6716 15.26482284 41188 TEVEL2-9 1 63237U 25052AD 25343.45474385 .00024673 00000-0 98937-3 0 9993 2 63237 97.4137 234.8085 0009240 90.8123 269.4174 15.24958462 41040 TEVEL2-7 1 63238U 25052AE 25343.27145941 .00021760 00000-0 87731-3 0 9991 2 63238 97.4142 234.6021 0009331 91.5656 268.6651 15.24802020 41011 TEVEL2-8 1 63239U 25052AF 25344.13015956 .00023143 00000-0 93235-3 0 9993 2 63239 97.4137 235.4371 0009323 89.7674 270.4632 15.24814462 41140 SO-125 1 63492U 25052BN 25343.25092669 .00079200 00000-0 20426-2 0 9998 2 63492 97.4068 236.7250 0011814 83.5547 276.7043 15.38813653 41166 NO-44 1 26931U 01043C 25344.15173766 .00000313 00000-0 14800-3 0 9996 2 26931 67.0516 13.1717 0007415 270.0835 89.9417 14.31852524263385 IO-117 1 53106U 22080B 25167.32760529 -.00000003 00000-0 00000-0 0 9996 2 53106 70.1560 65.9804 0008358 24.6429 335.4629 6.42557409 68669 SONATE-2 1 59112U 24043Q 25343.80313383 .00039125 00000-0 83232-3 0 9998 2 59112 97.5334 119.9449 0008966 172.4937 187.6447 15.44832354 98520